Regional Weather Roundup
Issued by NWS

Home | Current Version | Previous Version | Graphics & Text | Print | Product List | Glossary On
Versions: 1 2 3 4 5 6 7 8 9 10 11 12 13 14 15 16 17 18 19 20 21 22 23 24 25 26 27 28 29 30 31 32 33 34 35 36 37 38 39 40 41 42 43 44 45 46 47 48 49 50
000
ASUS45 KABQ 282101
RWRNM
NEW MEXICO REGIONAL WEATHER ROUNDUP
NATIONAL WEATHER SERVICE ALBUQUERQUE NM
300 PM MDT THU JUL 28 2016

NOTE: "FAIR" MEANS FEW OR NO CLOUDS BELOW 12,000 FEET AGL WITH NO
       SIGNIFICANT WEATHER OR OBSTRUCTIONS TO VISION.

      THIS PRODUCT IS RELEASED AS TWO VERSIONS.  ONE VERSION NEAR
      THE TOP OF THE HOUR CONTAINING PRELIMINARY DATA FROM ALBUQUERQUE
      AND OTHER STATIONS.  A FINAL VERSION WITH ADDITIONAL DATA IS
      ISSUED ABOUT 10 MINUTES AFTER THE HOUR.

NMZ501-503-504-510>518-282200-
NORTHWEST PLATEAU/NORTHCENTRAL MOUNTAINS

CITY           SKY/WX    TMP DP  RH WIND       PRES   REMARKS
FARMINGTON     FAIR      97  26   8 E3        30.12F
LOS ALAMOS     FAIR      76  46  34 W13       30.32F
SANTA FE       FAIR      88  41  19 SW12      30.24F
TAOS           PTSUNNY   75  39  27 NW29G38   30.33R THUNDER
ANGEL FIRE     FAIR      77  40  26 W13G18    30.39S

$$
NMZ402-403-502-505>509-282200-
WESTCENTRAL MOUNTAINS/SOUTHWEST MOUNTAINS

CITY           SKY/WX    TMP DP  RH WIND       PRES   REMARKS
GALLUP         FAIR      96  31  10 VRB5      30.20F
GRANTS         FAIR      87  41  19 W10       30.26F
SILVER CITY    FAIR      90  49  23 E12       30.18F

$$
NMZ407-409-411-412-282200-
SOUTHERN DESERTS

CITY           SKY/WX    TMP DP  RH WIND       PRES   REMARKS
LORDSBURG      FAIR      95  50  21 SE10      30.08F
DEMING         FAIR      95  49  20 VRB5      30.07F
LAS CRUCES     FAIR      95  46  18 E13       30.09F
ALAMOGORDO     FAIR      95  50  21 SW5       30.06F
T OR C         FAIR      93  49  22 E3        30.12F

$$
NMZ519>523-282200-
CENTRAL VALLEYS/CENTRAL HIGHLANDS

CITY           SKY/WX    TMP DP  RH WIND       PRES   REMARKS
ALBUQUERQUE    PTSUNNY   94  37  13 W5        30.15F
DOUBLE EAGLE   PTSUNNY   93  43  17 VRB6      30.20F
MORIARTY ARPT  FAIR      91  36  14 SW3       30.25F
CLINES CORNERS CLOUDY    77  48  35 NE13      30.33R
BELEN          FAIR      94  37  13 S3        30.14F
SOCORRO        FAIR      96  43  16 S12G17    30.13F

$$
NMZ524>526-539-540-282200-
SOUTHCENTRAL MOUNTAINS

CITY           SKY/WX    TMP DP  RH WIND       PRES   REMARKS
RUIDOSO          N/A     81  45  28 SE7G17    30.33F

$$
NMZ527>531-282200-
NORTHEAST HIGHLANDS/NORTHEAST PLAINS

CITY           SKY/WX    TMP DP  RH WIND       PRES   REMARKS
LAS VEGAS      FAIR      86  38  18 SW20G28   30.29F
RATON          FAIR      93  41  16 S12       30.18F
CLAYTON        FAIR      92  53  26 S18G24    30.10F

$$
NMZ532>537-282200-
EASTCENTRAL PLAINS

CITY           SKY/WX    TMP DP  RH WIND       PRES   REMARKS
TUCUMCARI      FAIR      96  46  18 VRB6      30.06F
CANNON AFB     NOT AVBL
CLOVIS AIRPORT FAIR      90  54  29 CALM      30.12F

$$
NMZ028-029-538-282200-
SOUTHEAST PLAINS

CITY           SKY/WX    TMP DP  RH WIND       PRES   REMARKS
ROSWELL        FAIR      96  54  24 E10G17    30.05F
ARTESIA        FAIR      95  57  28 NE12      30.04F
CARLSBAD       FAIR      92  59  33 VRB3      30.02F
HOBBS          MOSUNNY   93  52  24 NE10G17   30.07F


$$




USA.gov is the U.S. government's official web portal to all federal, state and local government web resources and services.